Theta_e
346 353 348 345 356 358 360 357 351 353 352 349 347 350 351 352 350 350 344 344 341 347 346 346 346 346 344 342 340 333 333 333 330 331 336 332 330 329 332 338 338 336 332 331 330 329 329 329 329
341 352 350 343 359 362 360 355 354 352 351 350 350 350 350 355 349 345 345 343 339 346 346 345 344 344 345 345 344 339 335 338 336 333 331 331 330 330 332 336 334 332 331 330 330 329 329 330 331
343 351 351 354 357 361 360 355 353 351 350 349 350 348 349 351 347 346 344 343 339 346 346 344 344 342 343 344 344 342 342 338 341 339 331 333 334 334 335 335 335 333 332 331 329 329 329 332 334
343 348 348 357 358 355 355 353 351 350 350 349 348 351 348 348 345 344 343 344 343 341 345 344 343 338 338 343 343 343 342 341 339 334 337 339 337 335 333 334 334 333 331 329 329 329 331 334 336
344 346 356 356 354 353 353 353 351 351 352 352 350 351 347 347 344 343 343 344 342 343 345 343 343 335 334 337 340 342 341 342 339 335 335 336 337 338 334 333 332 330 329 328 330 332 334 336 337
347 347 354 356 355 353 351 353 350 351 352 352 350 347 350 348 343 342 343 343 342 344 346 344 339 335 332 331 335 338 339 340 340 337 334 337 338 337 337 334 330 329 330 331 331 333 335 335 335
348 350 353 354 356 357 354 352 352 351 351 351 350 353 351 349 342 341 341 340 339 341 340 339 341 334 329 335 340 336 340 340 337 337 337 335 337 339 332 337 334 331 332 332 334 335 334 335 338
346 347 351 351 353 353 353 353 352 351 352 351 351 353 352 351 341 340 339 337 334 332 332 330 333 335 330 331 339 339 339 333 335 335 335 336 336 333 333 338 339 334 331 333 334 332 333 336 338
342 347 352 351 351 350 354 354 352 352 351 350 351 351 349 347 341 341 340 338 336 336 337 335 332 333 334 342 335 333 336 334 336 337 340 341 338 337 333 334 333 334 331 334 335 330 336 337 337
342 347 347 345 348 350 353 352 354 353 353 353 350 349 349 343 341 342 342 339 338 338 339 339 339 338 339 339 340 343 342 336 334 336 340 340 338 338 336 332 332 332 332 333 332 329 339 340 337
341 344 341 343 345 348 353 351 354 353 353 351 352 351 350 345 345 344 344 342 339 339 339 339 339 339 340 341 341 346 345 344 341 340 341 341 341 340 337 338 338 337 331 332 332 331 340 340 333
341 339 340 341 346 350 352 352 351 352 348 349 350 348 351 349 349 346 342 341 340 340 339 338 339 339 340 339 338 338 341 344 342 341 341 341 341 341 341 340 338 338 333 332 330 338 339 338 333
337 334 339 340 343 348 349 351 351 351 351 347 348 348 350 350 349 346 344 343 342 340 340 339 339 339 338 338 338 337 338 340 340 340 340 341 341 339 338 340 340 339 337 331 336 336 335 334 333
331 332 332 337 341 342 345 347 349 349 348 348 349 349 350 349 349 349 347 346 345 343 342 341 340 339 339 339 338 338 337 339 339 339 340 341 340 340 340 335 337 336 332 335 335 332 330 331 334
331 333 333 335 338 341 342 344 346 347 347 350 351 350 351 349 350 348 349 348 348 348 346 345 344 342 341 341 340 340 339 339 341 341 342 341 340 343 341 339 338 337 340 338 334 335 338 339 340
331 334 336 335 336 337 340 341 341 343 349 351 351 351 351 350 348 348 349 349 349 348 347 347 346 345 343 344 344 341 341 342 342 342 344 343 341 341 342 342 343 342 342 342 342 340 340 341 341
330 332 332 333 333 337 339 340 336 337 348 349 351 350 350 351 350 349 349 349 350 349 348 348 347 347 345 346 345 344 346 345 344 344 344 344 342 341 341 340 341 341 341 341 341 341 341 341 343
331 331 330 331 331 334 337 339 338 341 346 349 349 349 349 350 347 347 347 349 349 349 350 350 349 347 348 348 347 346 346 345 345 344 340 344 345 344 342 339 340 345 342 341 342 344 342 342 342
328 329 330 330 329 330 335 337 336 335 343 345 349 348 347 347 348 350 350 348 348 349 350 349 349 348 348 349 348 346 345 344 345 344 342 345 344 345 345 340 342 343 342 343 344 344 342 343 341
327 329 331 329 327 330 332 333 334 331 335 341 347 348 348 347 345 346 350 350 343 340 349 350 350 349 349 349 347 346 345 345 345 345 345 345 345 344 344 342 343 342 341 342 344 345 342 342 342
328 329 329 328 327 328 330 332 333 332 332 332 340 346 348 349 347 345 349 351 348 340 342 347 350 345 350 349 349 347 347 347 347 346 345 345 345 346 345 345 345 344 344 341 342 342 342 342 342
329 325 325 326 329 331 328 334 335 336 335 336 335 338 344 348 349 347 348 350 348 347 344 340 346 344 348 350 349 347 347 345 345 345 346 345 346 345 345 344 345 345 345 343 340 340 339 338 342
329 326 328 328 329 330 331 332 335 342 344 344 337 341 338 339 343 348 349 348 349 348 349 347 346 347 348 349 349 348 348 347 346 347 347 346 346 345 345 343 344 345 344 342 341 337 336 340 342
325 327 328 328 330 333 330 331 337 346 345 346 345 346 345 339 342 345 348 348 349 349 349 349 347 349 348 349 349 349 348 347 347 346 346 345 345 345 345 345 343 344 345 342 342 340 337 343 344
327 330 333 333 334 334 328 333 337 343 345 346 347 346 342 341 345 346 346 345 347 348 347 349 348 347 348 346 348 348 348 348 347 347 347 345 345 344 344 344 344 343 343 344 343 341 339 344 345
328 331 333 335 334 334 330 337 338 344 344 347 346 345 345 345 343 342 343 344 347 349 347 344 341 347 343 346 348 348 348 348 348 348 346 347 346 347 346 344 344 344 343 343 340 339 342 343 344
328 333 326 330 327 332 332 338 341 344 346 348 348 347 347 347 347 344 347 347 348 348 346 347 342 347 343 342 338 345 348 348 348 348 345 346 347 347 345 344 344 344 344 342 341 342 343 343 344
330 326 332 332 336 335 334 336 335 348 347 349 349 348 348 348 348 348 349 346 339 338 342 346 348 348 346 341 342 346 347 348 349 349 348 345 346 346 344 343 343 344 344 343 342 343 343 344 343
329 330 327 329 332 335 334 334 337 342 346 346 346 347 348 348 346 343 339 338 340 342 346 347 348 349 349 349 347 347 347 348 347 349 349 347 345 344 343 342 341 343 343 342 342 344 342 343 343
326 329 329 333 333 330 333 332 334 344 343 340 344 347 349 348 346 342 339 338 338 339 337 342 341 343 346 349 350 350 350 350 349 338 347 347 343 343 344 343 341 342 342 343 344 343 341 342 344
Wind_Speed
11 8 4 3 2 3 3 4 2 5 4 3 10 3 1 6 2 3 19 22 24 28 27 27 24 24 26 26 23 24 25 25 25 27 25 20 18 18 17 16 15 14 14 14 14 13 12 12 12
10 10 3 1 3 3 2 4 2 2 6 12 9 5 3 4 4 13 26 26 24 29 27 26 24 22 23 24 23 24 24 22 22 20 19 17 17 17 16 15 14 13 12 12 11 11 9 9 9
8 8 1 3 3 2 3 2 6 9 4 4 4 8 4 3 6 27 20 29 25 27 28 26 24 21 21 22 24 23 22 24 21 19 20 16 17 17 15 14 12 11 10 9 8 8 6 6 6
7 2 5 4 5 2 1 2 4 4 5 6 6 7 5 1 20 17 30 29 25 26 26 25 23 20 20 21 22 22 21 23 25 22 19 15 14 15 13 13 12 11 9 8 6 6 5 4 3
5 4 4 3 3 2 2 2 2 3 4 3 2 4 7 6 8 23 31 28 25 23 21 23 21 20 20 20 20 20 21 23 21 22 16 18 15 12 12 13 12 10 8 6 5 4 4 3 3
3 2 3 3 2 1 2 1 4 1 2 1 6 9 6 6 12 27 29 26 23 22 20 20 21 19 19 19 19 18 19 21 20 22 23 23 20 15 11 11 11 9 7 6 5 3 3 3 3
3 2 2 3 1 2 1 6 3 3 2 0 8 5 5 10 18 28 27 25 23 21 21 20 19 19 19 19 18 18 17 18 19 19 21 26 23 18 21 11 10 9 8 6 4 3 2 3 3
3 2 2 2 1 1 2 5 4 4 4 5 2 3 7 15 26 27 26 25 23 22 20 21 20 19 19 19 18 17 16 17 16 14 17 21 24 25 23 12 10 9 8 6 5 3 4 4 4
3 2 1 0 2 2 8 4 4 3 5 3 3 4 5 23 29 27 26 26 25 23 21 20 20 19 19 18 18 18 17 16 16 13 15 17 16 13 26 14 12 10 9 7 6 5 5 5 4
2 0 3 2 2 3 7 5 8 5 5 5 5 4 13 27 29 28 27 28 27 25 23 21 20 20 19 19 18 18 16 16 16 14 12 13 10 11 23 18 14 13 11 9 7 6 6 6 6
0 2 3 2 5 5 4 4 5 4 3 9 11 15 22 27 26 26 26 26 27 25 23 23 22 21 20 19 17 17 16 15 14 13 13 12 10 13 17 18 16 17 15 13 9 9 8 8 7
3 2 4 1 5 5 4 5 4 8 0 3 8 14 25 27 27 27 27 26 27 26 23 22 21 20 20 19 18 15 15 15 14 13 12 12 12 12 13 17 17 14 17 14 11 10 8 8 8
2 7 3 3 5 5 6 9 6 11 8 2 12 19 23 26 25 25 23 21 22 23 22 22 21 20 19 18 17 15 15 15 14 14 13 12 11 10 10 13 18 18 17 14 12 10 9 9 10
6 8 13 4 7 6 7 3 5 1 6 8 14 20 22 26 26 24 25 23 22 21 21 21 20 19 19 18 16 16 16 15 15 14 12 12 11 8 6 7 9 12 13 12 11 9 9 9 9
5 5 6 5 3 4 4 6 10 8 9 14 17 16 19 24 24 27 27 25 22 22 21 22 20 19 18 17 16 17 16 15 15 14 13 11 13 10 9 9 10 11 9 8 8 9 9 8 8
4 2 4 4 2 1 6 14 5 9 15 17 19 19 19 22 24 25 26 26 25 23 23 20 19 20 18 17 16 18 16 14 12 13 12 12 12 13 11 10 11 11 10 10 9 10 10 10 9
6 2 4 7 3 1 7 12 1 5 14 17 22 22 22 20 22 22 23 26 21 23 23 24 18 17 19 17 17 15 15 14 11 13 13 12 9 12 12 12 12 11 10 11 11 11 12 12 11
7 4 5 5 3 1 8 16 13 6 14 21 23 23 24 23 26 20 18 20 21 26 27 24 23 19 20 19 18 16 16 15 14 15 16 14 11 11 13 13 13 12 11 10 10 10 9 10 10
5 4 6 4 4 3 7 13 17 10 16 18 19 22 24 29 22 18 17 11 12 24 31 27 27 19 21 22 21 20 21 19 17 15 13 15 15 12 12 14 13 11 10 9 9 9 11 10 10
2 3 5 9 2 2 8 12 11 4 10 16 17 22 27 22 22 19 19 25 24 13 24 27 26 25 21 21 21 23 21 20 19 18 18 18 16 15 13 14 16 15 12 12 10 9 9 9 8
3 3 4 5 6 2 9 5 7 4 4 5 11 19 23 25 23 20 25 31 31 13 14 25 26 20 22 23 21 20 22 21 20 19 17 18 16 17 16 15 15 15 15 14 11 9 8 7 9
3 4 7 7 4 4 5 3 3 8 5 10 12 9 16 20 21 20 25 30 35 34 11 25 15 15 21 22 22 21 21 19 17 15 14 14 17 16 17 17 18 15 15 16 15 13 13 14 13
2 2 1 2 3 3 4 4 3 7 8 16 15 12 8 15 18 19 26 30 29 29 31 19 22 11 18 21 22 22 19 18 18 17 14 13 17 17 18 17 19 18 16 15 17 17 15 16 15
2 2 2 2 1 1 4 4 3 6 7 14 18 16 14 8 8 12 17 21 25 23 25 27 24 30 17 19 22 23 20 17 17 17 17 14 16 19 20 22 20 21 20 18 16 17 17 16 17
4 2 1 2 1 3 2 3 3 8 8 10 16 16 11 4 9 12 16 21 23 26 22 22 18 19 19 18 19 20 21 20 18 17 18 17 17 17 19 23 24 24 22 21 20 21 19 17 17
2 1 1 3 4 4 1 2 2 6 10 10 7 5 3 5 7 8 10 11 13 18 22 14 21 14 13 20 21 22 22 21 21 19 17 19 20 19 20 20 23 25 24 22 17 18 18 17 17
5 2 2 4 1 3 1 3 7 4 5 7 7 4 1 5 7 7 7 10 6 11 15 20 17 20 13 10 18 24 24 23 22 17 17 20 21 20 20 22 24 25 25 24 17 18 16 16 16
2 8 2 0 3 7 3 4 6 4 2 3 4 3 4 6 6 7 7 8 4 1 5 13 16 20 25 16 12 21 24 25 24 23 19 18 20 17 17 16 16 23 25 24 20 20 17 17 17
3 3 4 2 2 4 6 3 4 5 3 6 6 7 8 4 7 5 6 6 7 8 5 1 7 13 20 21 25 21 20 16 20 27 20 19 17 14 14 14 13 17 22 21 22 20 18 17 16
2 2 2 3 2 1 2 4 6 1 5 9 8 7 8 7 5 4 6 11 11 11 7 3 4 10 13 16 16 17 17 17 18 12 20 17 15 12 12 14 14 15 18 20 22 20 19 17 16
Wind_Direction
11 7 17 46 70 69 54 46 336 116 142 122 145 167 170 62 23 64 152 157 156 153 148 148 147 150 152 153 150 153 152 150 156 164 161 160 153 149 148 140 138 132 127 120 113 108 100 98 98
0 7 51 72 69 64 27 358 21 31 97 116 110 110 62 77 66 138 148 153 154 151 151 151 150 146 150 158 158 155 156 152 154 158 173 172 164 159 158 149 141 136 132 123 118 109 103 101 102
360 15 24 65 77 87 95 57 94 96 109 133 110 66 53 35 110 143 159 153 156 156 157 157 157 153 153 153 158 163 161 165 160 160 167 181 170 166 164 161 154 149 144 133 126 119 117 114 109
2 20 51 58 63 114 145 135 109 63 54 62 97 65 62 255 140 153 158 156 161 158 161 160 160 162 163 163 166 167 166 167 170 177 172 183 187 179 170 170 165 159 153 142 141 131 140 142 137
32 45 55 58 25 300 245 256 146 27 17 41 69 97 96 118 149 155 157 158 163 157 157 163 164 164 164 171 173 173 172 176 179 185 186 192 185 187 183 178 172 167 160 157 161 159 169 190 195
58 52 82 76 360 353 279 143 161 19 6 139 99 113 126 135 164 161 160 161 166 162 157 165 170 167 165 166 171 177 182 185 185 204 187 193 185 176 191 187 182 183 177 178 182 191 203 214 227
70 55 65 99 88 320 127 136 162 170 152 125 140 107 132 150 161 161 162 164 169 170 166 166 169 172 172 173 177 176 181 186 193 204 202 200 191 185 188 190 192 191 189 188 194 206 236 247 249
74 16 51 80 218 297 143 124 145 164 191 156 165 140 164 171 161 162 164 168 173 173 174 176 173 173 175 182 187 184 192 193 198 206 210 218 206 202 187 189 192 198 196 201 212 235 259 257 262
82 59 26 133 194 314 139 140 173 165 151 173 170 113 171 165 164 164 168 174 176 178 179 180 184 182 185 188 190 197 204 204 205 212 216 216 226 222 202 207 202 209 214 218 225 254 273 264 251
23 336 201 208 205 270 158 170 190 187 179 183 163 147 157 164 169 171 175 178 181 181 181 185 187 190 190 196 200 199 206 210 221 224 219 222 226 223 198 216 220 223 226 228 237 262 263 264 232
24 310 305 207 212 245 151 167 203 211 219 205 195 161 164 170 175 181 185 187 186 185 186 189 192 195 198 200 205 203 202 211 217 227 229 230 235 218 201 214 223 226 229 236 250 265 256 251 225
282 235 221 339 200 159 183 160 225 226 291 332 181 177 169 177 183 189 193 195 195 194 194 196 197 199 202 204 208 209 207 209 216 224 226 227 231 227 231 224 220 224 229 235 253 259 250 243 226
315 338 289 254 195 199 176 210 223 245 242 296 160 167 177 185 190 194 197 198 200 204 203 205 205 205 207 208 213 212 213 213 218 220 224 224 218 222 222 224 225 231 224 232 254 251 239 229 226
325 309 296 268 197 214 221 237 188 327 204 172 173 176 183 193 196 196 201 204 205 206 209 212 211 213 217 217 218 218 217 213 217 218 219 216 207 200 198 193 183 195 214 239 239 241 232 221 224
310 319 324 274 222 220 213 256 234 242 189 175 183 190 191 199 202 210 209 206 210 212 215 221 217 218 222 227 226 227 223 220 226 222 215 214 209 209 198 197 190 198 217 226 223 221 215 214 229
26 48 341 359 25 321 192 273 276 238 184 188 190 193 203 205 209 214 217 219 212 220 220 224 225 222 224 231 231 226 224 222 228 222 234 218 211 211 210 211 202 201 220 229 230 224 223 230 246
23 346 5 329 359 62 216 274 271 219 208 201 197 200 204 216 217 217 219 223 225 231 233 235 232 233 228 234 234 230 229 233 231 225 224 228 212 214 217 212 207 213 223 230 231 236 241 240 249
317 345 323 293 320 244 247 260 261 225 214 220 205 205 207 213 218 213 188 222 227 241 242 246 240 242 232 233 235 232 233 237 236 231 232 224 224 224 217 215 222 230 231 229 227 231 236 239 244
291 289 305 266 279 281 277 259 272 244 227 233 215 214 216 218 219 209 204 183 257 248 243 244 239 238 234 234 231 230 234 235 233 231 231 225 226 222 222 220 228 229 230 231 232 241 243 245 245
241 285 284 291 293 230 283 282 299 265 261 251 227 220 225 224 221 203 191 200 190 218 236 242 236 238 237 235 237 235 240 243 236 239 242 238 233 225 225 225 232 232 235 235 248 251 247 239 216
198 237 261 281 314 222 310 299 8 339 322 317 237 230 232 230 223 199 192 200 207 178 252 252 241 243 238 235 239 244 243 246 243 236 241 234 241 238 230 236 237 239 239 241 246 245 246 245 239
302 218 265 285 281 320 347 323 9 344 340 41 21 241 242 238 231 204 198 205 216 202 203 235 230 232 234 237 235 241 247 253 253 253 256 241 240 242 236 240 240 246 248 240 236 249 260 257 244
282 334 337 311 283 276 33 286 69 349 345 355 349 349 292 250 230 207 204 218 218 215 216 223 245 235 228 237 245 245 248 254 261 262 266 248 242 239 235 243 244 241 243 244 242 247 254 254 234
115 205 78 103 326 196 0 328 43 6 323 321 329 335 330 291 229 191 197 217 218 224 219 213 235 248 246 244 246 249 253 253 256 264 269 265 251 245 241 244 245 243 241 236 248 251 249 243 229
198 248 332 176 32 16 329 256 345 324 330 313 314 327 349 87 164 166 186 203 215 215 219 210 215 234 228 236 245 246 250 257 260 260 265 269 267 262 258 251 246 245 246 246 256 245 236 227 230
112 335 48 354 336 342 185 282 34 316 324 329 331 340 54 130 152 161 193 212 195 211 218 206 226 211 243 243 246 254 250 250 257 257 260 265 268 268 264 264 258 245 238 240 243 231 231 227 231
148 134 29 118 118 259 350 257 260 274 326 1 9 4 196 172 158 140 144 147 136 219 231 222 244 216 226 253 241 242 247 249 253 256 259 266 267 267 267 268 259 241 228 231 237 229 222 232 225
355 133 186 50 276 293 245 260 275 216 242 29 34 339 261 219 107 105 128 141 88 339 257 231 241 227 233 252 246 243 242 247 256 256 258 267 267 262 265 258 241 221 219 223 229 222 224 235 237
155 151 71 109 322 296 293 288 341 272 304 333 347 325 294 311 39 55 103 75 60 50 59 202 224 235 242 244 244 249 256 245 276 265 268 277 270 258 255 234 230 220 218 221 215 217 225 229 230
324 104 215 268 238 143 292 262 343 308 328 321 316 326 316 312 359 63 72 39 29 29 37 37 328 282 267 246 241 248 249 251 238 295 268 262 263 253 239 220 228 225 220 212 216 218 222 224 219